Location: Boiry-Saint-Martin
(50.2009°N, 2.7612°E)
Time: 07:02:43
(UTC+00:00)

Daily predictions for brighter satellites

Satellite Brightness Start Highest point End
(mag) Time Altitude Azimuth Time Altitude Azimuth Time Altitude Azimuth
CZ-4B R/B 2.9 16:21:52 10° SSE 16:25:53 56° ENE 16:29:43 10° N
NOAA 11 4.2 16:20:46 10° SSE 16:26:12 87° ENE 16:31:40 10° NNW
Iridium 2 3.6 16:24:45 10° N 16:28:32 70° E 16:32:16 10° SSE
USA 305 2.9 16:24:24 10° WSW 16:28:38 81° NNW 16:32:54 10° ENE
Lacrosse 5 rocket 2.3 16:25:50 10° WNW 16:29:12 29° N 16:32:43 10° ENE
Spot 1 4.5 16:28:35 10° NNE 16:33:07 56° ESE 16:37:53 10° S
Cosmos 2084 3.8 16:29:33 10° NW 16:33:40 46° NE 16:37:55 10° ESE
Cosmos 1943 4.4 16:29:14 10° WSW 16:34:26 36° NW 16:39:38 10° NNE
Meteor PRIRODA 3.5 16:30:51 10° SSE 16:34:28 71° ENE 16:38:06 10° N
Cosmos 1833 Rocket 4.0 16:31:29 10° SSE 16:35:37 21° E 16:39:45 10° NE
NOSS 2-1 (E) 2.9 16:34:13 10° SW 16:37:27 80° NW 16:40:54 10° NE
deb Kosmos-1763 4.0 16:35:10 10° S 16:38:31 56° ESE 16:41:53 10° NNE
CZ-2D R/B 4.2 16:37:00 10° ESE 16:40:11 25° ENE 16:43:22 10° N
ARGOS 4.2 16:37:47 10° ESE 16:41:57 23° ENE 16:46:08 10° N
USA 267 3.3 16:40:05 10° ENE 16:46:40 78° SSE 16:53:13 10° SW
YAOGAN 1 4.4 16:47:47 11° NE 16:47:56 11° NE 16:49:20 10° NE
Cosmos 1763 Rocket 4.3 16:43:35 10° SSE 16:47:57 30° E 16:52:22 10° NE
CZ-4B R/B 3.9 16:43:18 10° ESE 16:47:59 31° ENE 16:52:38 10° N
NOAA 12 4.1 16:42:43 10° SSE 16:48:03 88° ENE 16:53:25 10° NNW
Okean O Rocket 2.9 16:44:58 10° ESE 16:48:16 21° ENE 16:51:34 10° NNE
Cosmos 1606 2.6 16:44:47 10° S 16:48:31 75° E 16:52:19 10° NNE
NOAA 6 4.0 16:43:50 10° SSE 16:48:55 64° ENE 16:54:00 10° N
Cosmos 1937 Rocket 4.1 16:44:41 10° NNW 16:49:37 36° NE 16:54:32 10° ESE
Cosmos 1408 Rocket 3.5 16:46:46 10° N 16:51:08 80° E 16:55:30 10° SSE
SMAP 3.0 16:49:34 10° SSE 16:54:12 68° ENE 16:58:50 10° N
SL-08 R/B 3.5 16:50:03 10° NNE 16:54:50 78° WNW 16:59:29 10° SSW
Cosmos 1743 Rocket 3.6 16:52:55 10° N 16:57:10 52° ENE 17:01:23 10° SSE
USA 229 DEB 3.9 16:50:55 10° NW 16:58:09 74° NE 17:05:54 10° SE
USA 229 3.9 16:51:00 10° NW 16:58:15 73° NE 17:05:59 10° SE
PSLV R/B 4.0 16:55:10 10° SE 16:58:39 43° ENE 17:02:12 10° N
CZ-2C R/B 3.7 16:55:59 10° NE 17:00:05 23° E 17:04:08 10° SE
Cosmos 44 3.6 16:55:44 10° NW 17:00:33 68° SW 17:05:04 10° SSE
USA 306 3.1 16:56:23 10° W 17:00:38 64° NNW 17:03:52 17° ENE
Cosmos 990 Rocket 3.9 16:56:36 10° NNW 17:01:51 73° ENE 17:07:00 10° SSE
Cosmos 1500 4.2 17:00:40 10° NNE 17:03:48 24° ENE 17:06:55 10° SE
CZ-4C R/B 3.2 16:57:31 10° NW 17:03:52 43° NNE 17:11:24 10° E
Cosmos 1464 Rocket 4.1 16:57:41 10° S 17:04:05 90° W 17:10:31 10° N
ATLAS 2AS CENTAUR R/B 3.9 16:59:27 10° W 17:06:33 36° NNW 17:12:57 12° NE
ERBS 2.3 17:04:30 10° WSW 17:07:41 66° NNW 17:09:43 20° NE
Cosmos 2360 Rocket 4.0 17:07:09 10° N 17:09:25 12° NNE 17:10:47 11° NE
SeaSat 1 4.5 17:07:23 10° N 17:10:58 21° NW 17:14:33 10° W
Cosmos 1939 Rocket 3.2 17:09:33 10° S 17:13:40 73° WSW 17:17:47 10° NNW
MOS 1-B Rocket 4.4 17:08:37 10° NNE 17:14:04 40° E 17:20:03 10° SSE
Nadezhda 4 Rocket 4.1 17:07:56 10° N 17:14:16 83° W 17:20:36 10° S
GEOS 3 Rocket 3.9 17:09:26 10° ESE 17:14:25 46° NE 17:19:22 10° NW
Cosmos 1809 Rocket 4.5 17:08:24 10° N 17:14:25 58° ENE 17:20:24 10° SSE
USA 307 3.1 17:13:48 10° W 17:18:03 60° NNW 17:20:36 23° ENE
SJ 16-02 3.7 17:14:43 10° NW 17:18:24 27° W 17:22:03 10° SSW
NOSS 2-1 (C) 4.2 17:15:46 10° WSW 17:18:44 32° NW 17:21:05 15° NNE
SKYMED 2 4.5 17:17:11 19° NE 17:19:20 28° E 17:23:04 10° SSE
NOSS 3-1 (A) 4.1 17:14:16 10° NW 17:21:39 85° SW 17:30:21 10° SE
USA 234 4.1 17:15:26 10° SE 17:21:48 53° SW 17:28:11 10° WNW
CZ-2C R/B 4.2 17:17:16 10° S 17:21:59 43° W 17:26:34 10° NNW
ATLAS CENTAUR R/B 3.3 17:15:42 10° SSW 17:25:14 51° SE 17:27:51 24° ENE
Meteor 1-25 Rocket 4.1 17:21:09 10° N 17:26:45 84° ENE 17:32:21 10° SSE
Cosmos 1500 Rocket 3.7 17:22:22 10° NNW 17:26:51 77° W 17:31:15 10° S
Cosmos 1092 Rocket 4.0 17:20:28 10° N 17:26:52 77° E 17:33:12 10° SSE
Cosmos 1818 4.5 17:22:28 10° NNW 17:27:20 31° NNE 17:29:26 24° ENE
Cosmos 2322 Rocket 3.6 17:24:06 10° N 17:28:00 18° NE 17:28:41 18° NE
NOSS 2-1 (D) 4.5 17:25:17 10° W 17:28:08 28° NNW 17:30:11 16° NNE
ATLAS CENTAUR R/B 3.1 17:25:57 10° W 17:29:39 27° NNW 17:32:54 13° NNE
NOSS 2-2 (D) 4.2 17:25:31 10° NW 17:30:18 60° NE 17:36:57 10° ESE
NOSS 2-2 (E) 4.2 17:26:21 10° NW 17:31:20 71° NE 17:38:21 10° SE
Cosmos 2369 3.7 17:25:58 10° NNW 17:31:41 62° NE 17:37:21 10° SE
COSMOS 2455 3.6 17:27:43 10° S 17:32:55 31° ESE 17:35:04 25° ENE
Cosmos 1697 Rocket 2.6 17:28:28 10° NNW 17:34:08 89° ENE 17:39:46 10° SSE
Cosmos 1428 Rocket 4.4 17:29:19 10° N 17:35:28 77° E 17:41:37 10° SSE
Cosmos 1980 Rocket 2.2 17:31:26 10° NNW 17:37:03 55° NE 17:42:35 10° SE
Cosmos 1805 Rocket 3.4 17:33:43 10° N 17:38:04 85° ENE 17:42:25 10° S
USA 308 3.2 17:36:15 10° W 17:40:26 54° N 17:42:02 33° NE
CZ-4 R/B 4.5 17:38:48 10° SSE 17:42:48 53° ENE 17:46:51 10° N
Landsat 5 4.1 17:43:53 33° ESE 17:43:53 33° ESE 17:47:23 10° SSE
Sich 1 2.8 17:39:38 10° N 17:43:56 77° E 17:48:13 10° SSE
SL-16 R/B 3.2 17:39:17 10° NNW 17:43:57 25° NE 17:44:20 25° NE
Cosmos 1812 3.9 17:41:41 10° SSE 17:43:54 26° SE 17:43:54 26° SE
Cosmos 1627 Rocket 4.4 17:39:52 10° N 17:46:07 89° E 17:52:15 10° S
ISS -3.8 17:43:26 10° WNW 17:46:51 82° NNE 17:47:25 59° E
Cosmos 1898 Rocket 3.8 17:41:55 10° NNW 17:47:10 68° WSW 17:52:19 10° S
Cosmos 2333 Rocket 4.1 17:45:03 10° N 17:47:44 13° NNE 17:47:49 13° NNE
Cosmos 2034 Rocket 4.5 17:42:57 10° SSW 17:49:02 62° WNW 17:55:10 10° N
Cosmos 1782 2.7 17:45:46 10° S 17:49:43 63° E 17:51:20 33° NNE
Cosmos 2082 Rocket 2.7 17:45:17 10° S 17:50:28 37° ESE 17:51:42 33° E
Cosmos 540 Rocket 3.4 17:45:32 10° S 17:50:31 58° ESE 17:52:54 30° NE
Cosmos 468 Rocket 3.9 17:46:04 10° SSW 17:51:13 89° WNW 17:55:02 19° NNE
Cosmos 2221 4.3 17:48:40 10° SW 17:52:29 31° WNW 17:56:23 10° N
USA 276 4.0 17:51:59 10° W 17:54:40 26° SSW 17:56:01 19° S
Cosmos 1602 4.2 17:51:44 10° NNW 17:55:31 60° W 17:59:19 10° S
Cosmos 2278 3.7 17:51:17 10° NNW 17:56:57 57° NE 18:00:06 26° SE
CZ-4 R/B 3.3 18:00:06 17° N 18:00:06 17° N 18:01:14 10° N
H-2A R/B 2.4 17:52:43 10° S 17:57:53 66° WSW 18:02:57 10° NNW
Cosmos 2279 Rocket 4.0 17:53:35 10° SSE 17:59:38 55° E 18:05:40 10° NNE
YAOGAN 3 4.4 17:55:22 10° SSE 17:59:43 83° ENE 18:04:06 10° NNW
Cosmos 2266 Rocket 4.3 17:55:51 10° N 18:01:50 41° ENE 18:04:50 26° ESE
COSMOS 2406 3.1 17:56:13 10° SSW 18:01:55 71° ESE 18:04:43 31° NE
deb Chang Zheng 4 3.7 17:58:35 10° S 18:02:54 76° WSW 18:07:14 10° NNW
Meteor 2-16 Rocket 4.3 17:59:58 10° N 18:06:06 74° ENE 18:12:13 10° SSE
COSMO-SKYMED 1 2.4 18:05:48 35° NNE 18:07:37 81° ESE 18:11:57 10° SSW
SL-24 R/B - RUBIN 2 3.4 18:03:26 10° NW 18:08:04 89° NNE 18:09:23 45° SE
USA 305 3.2 18:04:41 10° WNW 18:08:49 50° N 18:09:08 49° NNE
Lacrosse 5 rocket 2.0 18:05:16 10° NW 18:08:35 40° N 18:08:35 40° N
Meteor 2-6 Rocket 4.5 18:03:44 10° SSE 18:09:11 45° E 18:09:28 44° E
Cosmos 1634 Rocket 4.0 18:06:12 10° S 18:12:32 82° W 18:18:55 10° N
Cosmos 1833 Rocket 2.8 18:13:20 10° SW 18:18:57 73° WNW 18:21:50 30° NNE
ARGOS 3.4 18:16:22 10° S 18:21:46 69° WSW 18:27:11 10° NNW
Cosmos 1655 Rocket 4.0 18:16:48 10° N 18:23:09 59° ENE 18:29:26 10° SSE
YAOGAN 1 3.5 18:24:57 36° N 18:24:57 36° N 18:27:35 10° N
Cosmos 1633 Rocket 2.9 18:19:08 10° N 18:23:32 90° ESE 18:24:27 56° S
Okean O Rocket 2.2 18:19:52 10° S 18:24:15 58° W 18:28:40 10° NNW
Cosmos 2219 Rocket 4.2 18:22:29 10° N 18:24:17 14° NNE 18:24:17 14° NNE
Feng Yun 1-1 Rocket 4.3 18:19:56 10° SSE 18:25:52 89° ENE 18:31:48 10° NNW
CZ-4B R/B 4.0 18:23:06 10° S 18:28:22 49° W 18:33:34 10° NNW
Cosmos 44 Rocket 3.7 18:24:16 10° NW 18:28:19 48° N 18:28:19 48° N
USA 267 3.6 18:27:14 38° NE 18:29:34 57° NNW 18:35:56 10° W
Cosmos 1763 Rocket 4.4 18:24:44 10° SW 18:29:35 44° WNW 18:32:33 22° N
Cosmos 1125 Rocket 4.4 18:25:04 10° NNW 18:28:19 33° N 18:28:19 33° N
Cosmos 841 Rocket 3.4 18:27:48 10° SSW 18:32:59 84° WNW 18:33:57 60° NNE
SL-08 RB Rocket 4.1 18:34:25 10° S 18:39:01 62° W 18:43:37 10° NNW
CZ-2C R/B 3.0 18:36:54 18° N 18:40:48 59° WNW 18:45:52 10° SSW
USA 306 3.9 18:36:44 10° WNW 18:39:52 40° NW 18:39:52 40° NW
Cosmos 2180 Rocket 4.4 18:35:08 10° S 18:41:29 84° E 18:45:59 21° NNE
Cosmos 1151 Rocket 3.8 18:44:44 10° SSW 18:48:06 48° SW 18:48:06 48° SW
GEOS 3 Rocket 4.4 18:50:17 31° S 18:52:27 48° SW 18:57:30 10° NW
CZ-4C R/B 3.0 18:45:56 10° NW 18:53:03 77° SW 18:56:41 37° SSE
Meteor 2-15 4.3 18:48:09 10° S 18:54:03 81° SE 18:54:03 81° SE
Cosmos 2360 Rocket 3.8 18:50:04 10° NNW 18:52:33 23° N 18:52:33 23° N
ATLAS 2AS CENTAUR R/B 4.0 18:53:08 10° NW 18:59:37 29° N 19:00:23 29° NNE
ATLAS CENTAUR R/B 4.1 19:07:33 10° NW 19:09:01 13° NNW 19:09:01 13° NNW
Cosmos 1818 4.2 19:05:57 10° NW 19:10:06 52° NW 19:10:06 52° NW
Cosmos 2322 Rocket 3.5 19:07:30 10° NNW 19:10:30 32° NNW 19:10:30 32° NNW
COSMOS 2455 3.2 19:12:34 10° SW 19:18:15 60° WNW 19:18:15 60° WNW
Cosmos 1980 Rocket 3.9 19:15:55 10° NW 19:20:45 29° WSW 19:25:27 10° SSW
SL-16 R/B 3.4 19:23:01 10° NNW 19:26:13 35° NW 19:26:13 35° NW
Cosmos 2333 Rocket 4.3 19:28:27 10° NNW 19:29:50 17° NNW 19:29:50 17° NNW
Cosmos 2082 Rocket 3.3 19:29:02 10° SW 19:33:36 42° WNW 19:33:36 42° WNW
